QPF
0.00 0.00 0.00 0.00 0.00 0.00 0.00 0.00 0.00 0.00 0.00 0.00 0.00 0.00 0.00 0.00 0.00 0.00 0.00 0.00 0.00 0.00 0.00 0.00 0.00 0.00 0.00 0.00 0.00 0.00 0.00 0.00 0.00 0.00 0.00 0.00 0.00 0.00 0.00 0.00 0.00 0.00 0.00 0.00
0.00 0.00 0.00 0.00 0.00 0.00 0.00 0.00 0.00 0.00 0.00 0.00 0.00 0.00 0.00 0.00 0.00 0.00 0.00 0.00 0.00 0.00 0.00 0.00 0.00 0.00 0.00 0.00 0.00 0.00 0.00 0.00 0.00 0.00 0.00 0.00 0.00 0.00 0.00 0.00 0.00 0.00 0.00 0.00
0.00 0.00 0.00 0.00 0.00 0.00 0.00 0.00 0.00 0.00 0.00 0.00 0.00 0.00 0.00 0.00 0.00 0.00 0.00 0.00 0.00 0.00 0.00 0.00 0.00 0.00 0.00 0.00 0.00 0.00 0.00 0.00 0.00 0.00 0.00 0.00 0.00 0.00 0.00 0.00 0.00 0.00 0.00 0.00
0.00 0.00 0.00 0.00 0.00 0.00 0.00 0.00 0.00 0.00 0.00 0.00 0.00 0.00 0.00 0.00 0.00 0.00 0.00 0.00 0.00 0.00 0.00 0.00 0.00 0.00 0.00 0.00 0.00 0.00 0.00 0.00 0.00 0.00 0.00 0.00 0.00 0.00 0.00 0.00 0.00 0.00 0.00 0.00
0.00 0.00 0.00 0.00 0.00 0.00 0.00 0.00 0.00 0.00 0.00 0.00 0.00 0.00 0.00 0.00 0.00 0.00 0.00 0.00 0.00 0.00 0.00 0.00 0.00 0.00 0.00 0.00 0.00 0.00 0.00 0.00 0.00 0.00 0.00 0.00 0.00 0.00 0.00 0.00 0.00 0.00 0.00 0.00
0.00 0.00 0.00 0.00 0.00 0.00 0.00 0.00 0.00 0.00 0.00 0.00 0.00 0.00 0.00 0.00 0.00 0.00 0.00 0.00 0.00 0.00 0.00 0.00 0.00 0.00 0.00 0.00 0.00 0.00 0.00 0.00 0.00 0.00 0.00 0.00 0.00 0.00 0.00 0.00 0.00 0.00 0.00 0.00
0.00 0.00 0.00 0.00 0.00 0.00 0.00 0.00 0.00 0.00 0.00 0.00 0.00 0.00 0.00 0.00 0.00 0.00 0.00 0.00 0.00 0.00 0.00 0.00 0.00 0.00 0.00 0.00 0.00 0.00 0.00 0.00 0.00 0.00 0.00 0.00 0.00 0.00 0.00 0.00 0.00 0.00 0.00 0.00
0.00 0.00 0.00 0.00 0.00 0.00 0.00 0.00 0.00 0.00 0.00 0.00 0.00 0.00 0.00 0.00 0.00 0.00 0.00 0.00 0.00 0.00 0.00 0.00 0.00 0.00 0.00 0.00 0.00 0.00 0.00 0.00 0.00 0.00 0.00 0.00 0.00 0.00 0.00 0.00 0.00 0.00 0.00 0.00
0.00 0.00 0.00 0.00 0.00 0.00 0.00 0.00 0.00 0.00 0.00 0.00 0.00 0.00 0.00 0.00 0.00 0.00 0.00 0.00 0.00 0.00 0.00 0.00 0.00 0.00 0.00 0.00 0.00 0.00 0.00 0.00 0.00 0.00 0.00 0.00 0.00 0.00 0.00 0.00 0.00 0.00 0.00 0.00
0.00 0.00 0.00 0.00 0.00 0.00 0.00 0.00 0.00 0.00 0.00 0.00 0.00 0.00 0.00 0.00 0.00 0.00 0.00 0.00 0.00 0.00 0.00 0.00 0.00 0.00 0.00 0.00 0.00 0.00 0.00 0.00 0.00 0.00 0.00 0.00 0.00 0.00 0.00 0.00 0.00 0.00 0.00 0.00
0.00 0.00 0.00 0.00 0.00 0.00 0.00 0.00 0.00 0.00 0.00 0.00 0.00 0.00 0.00 0.00 0.00 0.00 0.00 0.00 0.00 0.00 0.00 0.00 0.00 0.00 0.00 0.00 0.00 0.00 0.00 0.00 0.00 0.00 0.00 0.00 0.00 0.00 0.00 0.00 0.00 0.00 0.00 0.00
0.00 0.00 0.00 0.00 0.00 0.00 0.00 0.00 0.00 0.00 0.00 0.00 0.00 0.00 0.00 0.00 0.00 0.00 0.00 0.00 0.00 0.00 0.00 0.00 0.00 0.00 0.00 0.00 0.00 0.00 0.00 0.00 0.00 0.00 0.00 0.00 0.00 0.00 0.00 0.00 0.00 0.00 0.00 0.00
0.00 0.00 0.00 0.00 0.00 0.00 0.00 0.00 0.00 0.00 0.00 0.00 0.00 0.00 0.00 0.00 0.00 0.00 0.00 0.00 0.00 0.00 0.00 0.00 0.00 0.00 0.00 0.00 0.00 0.00 0.00 0.00 0.00 0.00 0.00 0.00 0.00 0.00 0.00 0.00 0.00 0.00 0.00 0.00
0.00 0.00 0.00 0.00 0.00 0.00 0.00 0.00 0.00 0.00 0.00 0.00 0.00 0.00 0.00 0.00 0.00 0.00 0.00 0.00 0.00 0.00 0.00 0.00 0.00 0.00 0.00 0.00 0.00 0.00 0.00 0.00 0.00 0.00 0.00 0.00 0.00 0.00 0.00 0.00 0.00 0.00 0.00 0.00
0.00 0.00 0.00 0.00 0.00 0.00 0.00 0.00 0.00 0.00 0.00 0.00 0.00 0.00 0.00 0.00 0.00 0.00 0.00 0.00 0.00 0.00 0.00 0.00 0.00 0.00 0.00 0.00 0.00 0.00 0.00 0.00 0.00 0.00 0.00 0.00 0.00 0.00 0.00 0.00 0.00 0.00 0.00 0.00
0.00 0.00 0.00 0.00 0.00 0.00 0.00 0.00 0.00 0.00 0.00 0.00 0.00 0.00 0.00 0.00 0.00 0.00 0.00 0.00 0.00 0.00 0.00 0.00 0.00 0.00 0.00 0.00 0.00 0.00 0.00 0.00 0.00 0.00 0.00 0.00 0.00 0.00 0.00 0.00 0.00 0.00 0.00 0.00
0.00 0.00 0.00 0.00 0.00 0.00 0.00 0.00 0.00 0.00 0.00 0.00 0.00 0.00 0.00 0.00 0.00 0.00 0.00 0.00 0.00 0.00 0.00 0.00 0.00 0.00 0.00 0.00 0.00 0.00 0.00 0.00 0.00 0.00 0.00 0.00 0.00 0.00 0.00 0.00 0.00 0.00 0.00 0.00
0.00 0.00 0.00 0.00 0.00 0.00 0.00 0.00 0.00 0.00 0.00 0.00 0.00 0.00 0.00 0.00 0.00 0.00 0.00 0.00 0.00 0.00 0.00 0.00 0.00 0.00 0.00 0.00 0.00 0.00 0.00 0.00 0.00 0.00 0.00 0.00 0.00 0.00 0.00 0.00 0.00 0.00 0.00 0.00
0.00 0.00 0.00 0.00 0.00 0.00 0.00 0.00 0.00 0.00 0.00 0.00 0.00 0.00 0.00 0.00 0.00 0.00 0.00 0.00 0.00 0.00 0.00 0.00 0.00 0.00 0.00 0.00 0.00 0.00 0.00 0.00 0.00 0.00 0.00 0.00 0.00 0.00 0.00 0.00 0.00 0.00 0.00 0.00
0.00 0.00 0.00 0.00 0.00 0.00 0.00 0.00 0.00 0.00 0.00 0.00 0.00 0.00 0.00 0.00 0.00 0.00 0.00 0.00 0.00 0.00 0.00 0.00 0.00 0.00 0.00 0.00 0.00 0.00 0.00 0.00 0.00 0.00 0.00 0.00 0.00 0.00 0.00 0.00 0.00 0.00 0.00 0.00
0.00 0.00 0.00 0.00 0.00 0.00 0.00 0.00 0.00 0.00 0.00 0.00 0.00 0.00 0.00 0.00 0.00 0.00 0.00 0.00 0.00 0.00 0.00 0.00 0.00 0.00 0.00 0.00 0.00 0.00 0.00 0.00 0.00 0.00 0.00 0.00 0.00 0.00 0.00 0.00 0.00 0.00 0.00 0.00
0.00 0.00 0.00 0.00 0.00 0.00 0.00 0.00 0.00 0.00 0.00 0.00 0.00 0.00 0.00 0.00 0.00 0.00 0.00 0.00 0.00 0.00 0.00 0.00 0.00 0.00 0.00 0.00 0.00 0.00 0.00 0.00 0.00 0.00 0.00 0.00 0.00 0.00 0.00 0.00 0.00 0.00 0.00 0.00
0.00 0.00 0.00 0.00 0.00 0.00 0.00 0.00 0.00 0.00 0.00 0.00 0.00 0.00 0.00 0.00 0.00 0.00 0.00 0.00 0.00 0.00 0.00 0.00 0.00 0.00 0.00 0.00 0.00 0.00 0.00 0.00 0.00 0.00 0.00 0.00 0.00 0.00 0.00 0.00 0.00 0.00 0.00 0.00
0.00 0.00 0.00 0.00 0.00 0.00 0.00 0.00 0.00 0.00 0.00 0.00 0.00 0.00 0.00 0.00 0.00 0.00 0.00 0.00 0.00 0.00 0.00 0.00 0.00 0.00 0.00 0.00 0.00 0.00 0.00 0.00 0.00 0.00 0.00 0.00 0.00 0.00 0.00 0.00 0.00 0.00 0.00 0.00
0.00 0.00 0.00 0.00 0.00 0.00 0.00 0.00 0.00 0.00 0.00 0.00 0.00 0.00 0.00 0.00 0.00 0.00 0.00 0.00 0.00 0.00 0.00 0.00 0.00 0.00 0.00 0.00 0.00 0.00 0.00 0.00 0.00 0.00 0.00 0.00 0.00 0.00 0.00 0.00 0.00 0.00 0.00 0.00
0.00 0.00 0.00 0.00 0.00 0.00 0.00 0.00 0.00 0.00 0.00 0.00 0.00 0.00 0.00 0.00 0.00 0.00 0.00 0.00 0.00 0.00 0.00 0.00 0.00 0.00 0.00 0.00 0.00 0.00 0.00 0.00 0.00 0.00 0.00 0.00 0.00 0.00 0.00 0.00 0.00 0.00 0.00 0.00
0.00 0.00 0.00 0.00 0.00 0.00 0.00 0.00 0.00 0.00 0.00 0.00 0.00 0.00 0.00 0.00 0.00 0.00 0.00 0.00 0.00 0.00 0.00 0.00 0.00 0.00 0.00 0.00 0.00 0.00 0.00 0.00 0.00 0.00 0.00 0.00 0.00 0.00 0.00 0.00 0.00 0.00 0.00 0.00
MSLP
1016.99 1017.05 1017.15 1017.18 1017.24 1017.50 1017.59 1017.32 1016.83 1015.34 1014.34 1014.26 1013.64 1013.85 1014.23 1014.48 1014.73 1015.11 1015.25 1015.94 1016.14 1016.52 1017.19 1017.88 1018.46 1019.17 1019.66 1020.02 1020.66 1021.10 1021.41 1021.67 1022.29 1022.35 1022.59 1022.63 1022.56 1022.82 1022.71 1022.80 1023.04 1023.31 1023.30 1023.26
1017.36 1016.89 1017.04 1017.19 1016.91 1016.91 1016.69 1016.33 1015.91 1015.26 1013.91 1013.30 1013.13 1013.39 1013.65 1013.80 1014.29 1014.56 1014.54 1014.86 1015.19 1015.64 1016.53 1017.17 1017.79 1018.48 1019.26 1019.90 1020.61 1021.14 1021.41 1021.58 1021.85 1022.43 1022.50 1022.84 1022.75 1022.85 1022.95 1023.06 1023.13 1023.52 1023.54 1023.57
1017.73 1017.49 1017.49 1017.37 1015.97 1015.57 1015.32 1014.96 1014.61 1014.65 1012.77 1012.90 1012.67 1012.82 1012.68 1012.66 1012.96 1013.11 1013.29 1013.74 1014.55 1014.96 1015.59 1016.45 1017.18 1017.96 1018.64 1019.47 1020.35 1020.81 1021.08 1021.46 1021.53 1022.18 1022.57 1022.71 1022.91 1023.06 1023.08 1023.18 1023.49 1023.73 1023.89 1023.80
1017.71 1017.82 1017.01 1014.96 1014.33 1014.39 1014.49 1013.82 1013.98 1013.61 1012.44 1012.33 1012.16 1012.09 1012.15 1012.07 1012.15 1012.25 1012.58 1012.98 1013.64 1014.42 1015.06 1015.81 1016.72 1017.53 1018.23 1019.11 1019.86 1020.44 1020.85 1021.27 1021.54 1022.05 1022.46 1022.64 1022.95 1023.13 1023.13 1023.44 1023.92 1024.22 1024.28 1024.28
1017.41 1017.28 1015.87 1014.18 1013.79 1014.00 1014.03 1012.86 1012.55 1012.61 1012.19 1012.08 1012.19 1012.18 1011.39 1011.46 1011.56 1011.51 1011.69 1011.93 1012.68 1013.50 1014.33 1015.30 1016.24 1017.13 1018.06 1019.04 1019.70 1020.15 1020.56 1020.93 1021.35 1021.67 1022.17 1022.60 1022.98 1023.12 1023.40 1023.79 1024.34 1024.61 1024.69 1024.70
1016.88 1016.57 1015.53 1014.12 1013.35 1013.20 1013.38 1012.86 1011.92 1012.15 1012.14 1012.16 1012.40 1012.43 1011.21 1010.89 1010.96 1011.22 1011.58 1012.04 1012.65 1013.46 1014.39 1015.29 1016.23 1016.97 1017.87 1018.68 1019.33 1019.78 1020.23 1020.71 1021.13 1021.52 1021.98 1022.45 1022.71 1023.12 1023.67 1024.19 1024.58 1024.79 1025.03 1024.94
1015.96 1015.56 1014.30 1013.06 1013.01 1013.04 1013.31 1012.79 1011.77 1011.73 1011.74 1011.95 1012.24 1011.70 1011.44 1011.33 1011.41 1011.56 1011.95 1012.31 1012.75 1013.61 1014.34 1015.18 1016.11 1016.83 1017.74 1018.45 1018.94 1019.34 1019.93 1020.43 1020.85 1021.31 1021.75 1022.27 1022.72 1023.18 1023.76 1024.26 1024.65 1024.95 1025.11 1025.19
1015.31 1014.95 1013.75 1012.25 1012.89 1012.69 1011.94 1011.65 1011.55 1011.44 1011.32 1011.47 1011.57 1011.62 1011.74 1011.82 1012.02 1012.31 1012.57 1013.11 1013.55 1014.20 1014.99 1015.72 1016.27 1016.86 1017.67 1018.18 1018.63 1019.17 1019.71 1020.23 1020.73 1021.20 1021.66 1022.16 1022.57 1023.13 1023.72 1024.23 1024.58 1024.91 1025.07 1025.20
1013.64 1012.78 1011.80 1011.75 1011.47 1011.23 1011.36 1011.49 1011.26 1011.17 1011.07 1011.25 1011.47 1011.64 1011.83 1012.18 1012.59 1012.92 1013.17 1013.61 1014.14 1014.61 1015.36 1015.98 1016.39 1016.79 1017.46 1017.97 1018.59 1019.21 1019.74 1020.14 1020.57 1021.02 1021.39 1021.86 1022.40 1023.02 1023.75 1024.18 1024.38 1024.69 1024.80 1024.83
1013.30 1011.73 1011.53 1011.35 1011.17 1011.16 1011.06 1011.02 1010.90 1010.91 1010.87 1011.10 1011.40 1011.71 1012.05 1012.39 1012.78 1013.23 1013.63 1014.02 1014.38 1014.86 1015.43 1016.00 1016.43 1016.77 1017.10 1017.84 1018.56 1019.09 1019.55 1019.96 1020.35 1020.75 1021.25 1021.72 1022.21 1022.75 1023.30 1023.73 1024.05 1024.15 1024.22 1024.35
1012.84 1011.79 1011.44 1010.93 1010.71 1010.55 1010.64 1010.78 1010.87 1010.99 1011.06 1011.14 1011.37 1011.74 1012.02 1012.33 1012.75 1013.18 1013.50 1013.90 1014.31 1014.66 1015.13 1015.53 1016.19 1016.54 1016.96 1017.56 1018.15 1018.77 1019.11 1019.60 1020.06 1020.47 1020.89 1021.37 1021.81 1022.25 1022.64 1022.98 1023.13 1023.29 1023.49 1023.59
1012.51 1011.67 1011.30 1010.54 1010.15 1010.20 1010.59 1010.69 1010.78 1011.09 1011.34 1011.44 1011.55 1011.83 1012.08 1012.42 1012.69 1013.08 1013.42 1013.77 1014.16 1014.49 1014.84 1015.32 1015.75 1016.18 1016.74 1017.24 1017.76 1018.26 1018.69 1019.10 1019.52 1020.04 1020.48 1021.01 1021.58 1022.13 1022.26 1022.38 1022.51 1022.54 1022.61 1022.81
1012.06 1011.77 1011.34 1010.68 1010.59 1010.41 1010.53 1010.79 1011.09 1011.44 1011.74 1011.97 1012.22 1012.26 1012.37 1012.75 1013.03 1013.21 1013.49 1013.80 1014.05 1014.26 1014.50 1014.83 1015.38 1015.81 1016.26 1016.72 1017.22 1017.68 1018.12 1018.57 1019.00 1019.51 1019.99 1020.50 1021.11 1021.54 1021.84 1021.99 1021.84 1021.78 1021.88 1022.07
1012.22 1011.86 1011.33 1010.77 1010.75 1010.86 1010.87 1011.02 1011.33 1011.99 1012.37 1012.63 1012.83 1012.99 1013.04 1013.16 1013.34 1013.57 1013.76 1013.84 1013.95 1014.17 1014.37 1014.62 1015.03 1015.37 1015.72 1016.25 1016.74 1017.18 1017.54 1017.93 1018.37 1018.80 1019.28 1019.80 1020.32 1020.76 1021.06 1021.30 1021.42 1021.35 1021.29 1021.40
1011.77 1011.45 1011.46 1011.18 1011.17 1011.48 1011.59 1011.80 1012.14 1012.60 1013.03 1013.37 1013.51 1013.69 1013.76 1013.83 1013.85 1013.92 1013.89 1013.80 1013.89 1014.09 1014.25 1014.46 1014.66 1014.82 1015.24 1015.71 1016.18 1016.60 1017.04 1017.30 1017.66 1018.11 1018.69 1019.20 1019.67 1020.03 1020.33 1020.58 1020.66 1020.79 1021.07 1021.15
1011.85 1011.79 1011.83 1011.42 1011.63 1012.01 1012.11 1012.45 1012.80 1013.20 1013.53 1013.82 1014.00 1014.18 1014.27 1014.27 1014.26 1014.24 1014.14 1014.05 1014.15 1014.11 1014.07 1014.19 1014.28 1014.23 1014.58 1015.11 1015.63 1016.12 1016.42 1016.64 1017.01 1017.48 1018.05 1018.53 1019.01 1019.36 1019.62 1019.76 1019.93 1020.08 1020.27 1020.25
1012.24 1012.11 1012.02 1011.74 1011.94 1012.30 1012.51 1012.81 1013.13 1013.45 1013.86 1014.14 1014.39 1014.49 1014.51 1014.42 1014.36 1014.42 1014.44 1014.37 1014.30 1014.14 1014.02 1013.96 1013.84 1013.95 1014.14 1014.53 1015.00 1015.34 1015.72 1016.01 1016.29 1016.84 1017.23 1017.64 1018.02 1018.38 1018.70 1018.97 1019.05 1019.10 1019.07 1019.21
1012.27 1012.13 1011.91 1011.75 1011.97 1012.46 1012.96 1013.38 1013.63 1013.94 1014.27 1014.37 1014.49 1014.61 1014.70 1014.77 1014.79 1014.73 1014.62 1014.54 1014.36 1014.28 1014.20 1014.06 1013.85 1013.76 1013.94 1014.06 1014.38 1014.73 1015.04 1015.34 1015.68 1015.98 1016.44 1016.85 1017.18 1017.54 1017.86 1018.07 1018.19 1018.25 1018.22 1018.39
1012.51 1012.62 1012.52 1012.50 1012.57 1012.84 1013.25 1013.69 1014.01 1014.26 1014.54 1014.63 1014.70 1014.88 1015.01 1015.09 1015.04 1014.96 1014.73 1014.65 1014.67 1014.62 1014.64 1014.35 1013.91 1013.67 1013.77 1013.84 1013.96 1014.26 1014.60 1014.91 1015.16 1015.38 1015.62 1015.94 1016.25 1016.54 1016.83 1016.99 1017.18 1017.30 1017.37 1017.43
1013.26 1013.27 1013.33 1013.33 1013.35 1013.61 1014.03 1014.31 1014.53 1014.76 1014.92 1014.96 1015.13 1015.30 1015.42 1015.48 1015.36 1015.19 1014.99 1015.12 1015.26 1015.13 1014.74 1014.49 1014.08 1013.82 1013.74 1013.67 1013.64 1013.93 1014.20 1014.42 1014.57 1014.77 1015.01 1015.20 1015.40 1015.62 1015.79 1015.97 1016.17 1016.30 1016.40 1016.37
1013.69 1013.78 1013.88 1013.97 1014.32 1014.53 1014.74 1014.84 1014.99 1015.22 1015.37 1015.49 1015.61 1015.84 1015.92 1015.89 1015.74 1015.58 1015.41 1015.46 1015.46 1015.20 1014.92 1014.59 1014.29 1014.09 1013.82 1013.55 1013.48 1013.55 1013.75 1013.92 1014.06 1014.21 1014.37 1014.46 1014.64 1014.76 1014.89 1015.02 1015.12 1015.18 1015.26 1015.44
1014.18 1014.30 1014.51 1014.67 1014.87 1015.14 1015.31 1015.43 1015.56 1015.70 1015.86 1016.02 1016.11 1016.14 1016.22 1016.18 1016.10 1015.99 1015.97 1016.09 1015.85 1015.32 1015.05 1014.74 1014.44 1014.11 1013.83 1013.63 1013.57 1013.56 1013.53 1013.55 1013.61 1013.69 1013.77 1013.87 1013.93 1014.00 1014.07 1014.17 1014.22 1014.25 1014.31 1014.42
1014.88 1014.99 1015.13 1015.22 1015.31 1015.51 1015.70 1015.87 1015.98 1016.04 1016.17 1016.23 1016.52 1016.39 1016.59 1016.57 1016.58 1016.37 1016.20 1016.09 1015.78 1015.36 1015.13 1014.90 1014.43 1014.14 1013.84 1013.79 1013.67 1013.52 1013.45 1013.42 1013.39 1013.37 1013.39 1013.43 1013.46 1013.49 1013.50 1013.47 1013.45 1013.50 1013.54 1013.59
1015.39 1015.51 1015.59 1015.63 1015.65 1015.79 1016.03 1016.26 1016.34 1016.43 1016.51 1016.53 1016.58 1016.64 1016.70 1016.67 1016.58 1016.56 1016.57 1016.34 1015.91 1015.47 1015.29 1015.05 1014.73 1014.47 1014.31 1014.24 1014.00 1013.74 1013.54 1013.39 1013.30 1013.20 1013.14 1013.03 1013.05 1013.03 1013.01 1012.96 1012.92 1012.86 1012.89 1012.93
1015.60 1015.77 1015.87 1015.86 1015.91 1016.03 1016.23 1016.58 1016.64 1016.65 1016.64 1016.64 1016.63 1016.66 1016.68 1016.75 1016.85 1016.70 1016.60 1016.41 1016.06 1015.74 1015.59 1015.34 1015.00 1014.75 1014.68 1014.53 1014.34 1014.06 1013.81 1013.62 1013.41 1013.20 1013.07 1012.95 1012.83 1012.73 1012.66 1012.64 1012.60 1012.53 1012.48 1012.45
1015.66 1015.85 1015.98 1015.97 1016.03 1016.14 1016.27 1016.45 1016.62 1016.67 1016.71 1016.76 1016.69 1016.64 1016.70 1016.69 1016.67 1016.58 1016.48 1016.32 1016.22 1015.92 1015.78 1015.53 1015.30 1015.06 1014.94 1014.76 1014.55 1014.39 1014.21 1013.93 1013.60 1013.42 1013.13 1012.91 1012.71 1012.56 1012.46 1012.37 1012.28 1012.16 1012.03 1011.92
1015.66 1015.86 1015.98 1016.09 1016.04 1016.12 1016.24 1016.38 1016.49 1016.56 1016.52 1016.71 1016.77 1016.57 1016.55 1016.50 1016.42 1016.30 1016.25 1016.31 1016.21 1016.05 1015.86 1015.64 1015.43 1015.21 1014.97 1014.77 1014.65 1014.49 1014.29 1014.03 1013.76 1013.49 1013.26 1013.05 1012.75 1012.41 1012.16 1012.01 1011.89 1011.75 1011.64 1011.53
Thickness
5495 5501 5499 5500 5503 5499 5499 5514 5511 5533 5540 5547 5553 5556 5551 5551 5548 5545 5547 5541 5542 5541 5537 5534 5532 5530 5529 5529 5527 5526 5526 5526 5522 5524 5525 5528 5531 5530 5532 5532 5531 5529 5529 5530
5471 5496 5487 5486 5493 5495 5503 5511 5514 5523 5534 5544 5549 5544 5546 5548 5543 5544 5546 5547 5544 5541 5536 5533 5531 5528 5524 5520 5516 5514 5513 5516 5516 5512 5514 5514 5517 5518 5519 5519 5519 5517 5517 5516
5477 5476 5476 5465 5495 5505 5512 5510 5519 5513 5541 5540 5543 5545 5551 5554 5550 5553 5552 5549 5542 5541 5539 5533 5528 5524 5520 5514 5508 5506 5505 5505 5508 5504 5502 5504 5504 5505 5506 5506 5506 5504 5503 5504
5470 5463 5464 5503 5515 5507 5509 5523 5514 5517 5537 5538 5542 5546 5543 5545 5549 5550 5551 5547 5543 5539 5533 5528 5523 5518 5514 5508 5503 5499 5498 5497 5497 5494 5493 5494 5493 5494 5496 5495 5493 5491 5491 5490
5466 5462 5473 5513 5508 5499 5499 5521 5516 5522 5531 5534 5531 5535 5546 5544 5544 5551 5551 5551 5546 5540 5533 5524 5518 5513 5507 5500 5496 5494 5492 5492 5490 5490 5487 5485 5484 5485 5484 5482 5480 5478 5478 5479
5449 5455 5467 5493 5510 5502 5504 5503 5524 5514 5518 5518 5516 5516 5540 5542 5541 5542 5541 5539 5538 5531 5523 5517 5510 5506 5499 5493 5491 5490 5488 5486 5484 5482 5481 5479 5478 5476 5473 5471 5469 5469 5467 5469
5459 5462 5473 5495 5497 5495 5497 5509 5519 5519 5517 5516 5510 5525 5528 5528 5531 5531 5531 5530 5527 5522 5518 5513 5505 5500 5494 5490 5488 5487 5483 5481 5479 5477 5475 5472 5470 5468 5466 5463 5461 5460 5459 5459
5458 5464 5476 5493 5484 5493 5500 5506 5511 5514 5516 5513 5510 5518 5519 5518 5517 5517 5517 5514 5512 5510 5505 5500 5497 5495 5489 5486 5484 5481 5478 5475 5472 5469 5467 5465 5464 5461 5458 5455 5453 5451 5450 5450
5465 5479 5493 5486 5503 5499 5497 5499 5509 5511 5515 5511 5510 5514 5514 5509 5506 5506 5506 5504 5502 5500 5495 5492 5490 5490 5485 5482 5478 5474 5471 5469 5466 5464 5462 5460 5457 5453 5449 5446 5445 5444 5445 5445
5472 5491 5484 5489 5492 5493 5496 5500 5508 5511 5513 5509 5510 5508 5507 5501 5499 5498 5497 5496 5495 5493 5490 5487 5485 5484 5483 5477 5473 5469 5466 5464 5462 5460 5457 5455 5452 5449 5445 5442 5440 5441 5442 5442
5459 5478 5481 5490 5489 5496 5497 5496 5502 5503 5505 5506 5504 5504 5502 5500 5497 5496 5495 5494 5492 5491 5489 5488 5481 5480 5478 5474 5470 5466 5465 5462 5459 5457 5455 5451 5449 5446 5444 5442 5441 5440 5439 5440
5462 5473 5481 5492 5500 5496 5493 5494 5495 5496 5497 5498 5499 5498 5499 5496 5495 5493 5491 5490 5487 5486 5485 5483 5480 5477 5473 5470 5467 5464 5462 5459 5457 5454 5452 5448 5444 5441 5441 5440 5439 5439 5438 5437
5461 5463 5468 5481 5484 5489 5492 5489 5488 5488 5488 5487 5485 5488 5492 5489 5487 5488 5486 5484 5483 5483 5482 5481 5477 5474 5471 5468 5465 5463 5460 5457 5454 5452 5449 5446 5441 5438 5437 5436 5437 5437 5436 5435
5450 5455 5466 5477 5483 5481 5484 5482 5481 5473 5471 5472 5475 5473 5477 5479 5478 5477 5477 5478 5478 5477 5476 5475 5472 5471 5469 5465 5462 5459 5458 5456 5452 5450 5447 5443 5439 5437 5434 5433 5431 5431 5432 5432
5451 5453 5457 5462 5465 5465 5466 5468 5468 5465 5462 5460 5459 5461 5463 5465 5467 5467 5468 5470 5470 5469 5469 5468 5467 5467 5464 5461 5458 5455 5452 5452 5449 5446 5442 5439 5435 5433 5431 5428 5427 5426 5424 5423
5443 5447 5450 5460 5458 5457 5460 5460 5458 5456 5453 5451 5451 5450 5450 5453 5455 5457 5459 5461 5462 5463 5463 5463 5462 5462 5460 5457 5453 5449 5447 5447 5446 5442 5438 5435 5431 5429 5427 5425 5424 5422 5420 5420
5436 5443 5446 5452 5451 5450 5451 5448 5448 5447 5443 5442 5441 5440 5442 5445 5448 5449 5449 5451 5452 5454 5456 5457 5457 5456 5454 5452 5448 5446 5443 5442 5441 5437 5435 5433 5431 5427 5425 5423 5421 5421 5421 5418
5432 5436 5443 5451 5445 5440 5436 5435 5435 5436 5434 5435 5435 5436 5437 5437 5438 5439 5440 5440 5443 5444 5445 5446 5447 5448 5446 5445 5443 5441 5439 5437 5435 5435 5431 5429 5427 5425 5422 5420 5419 5418 5418 5414
5426 5428 5430 5433 5434 5432 5430 5428 5427 5427 5427 5427 5429 5429 5429 5429 5429 5429 5430 5432 5430 5431 5431 5432 5437 5439 5437 5436 5435 5434 5432 5429 5427 5427 5427 5426 5423 5421 5419 5419 5417 5416 5415 5413
5418 5420 5420 5421 5422 5421 5418 5417 5417 5416 5415 5417 5418 5418 5418 5416 5416 5417 5419 5416 5414 5414 5417 5419 5423 5425 5426 5426 5428 5425 5424 5423 5422 5421 5420 5419 5419 5417 5416 5415 5413 5412 5411 5411
5412 5412 5410 5409 5406 5405 5406 5407 5408 5406 5405 5405 5405 5403 5402 5401 5401 5402 5406 5404 5400 5401 5402 5405 5408 5410 5413 5416 5417 5417 5416 5416 5415 5414 5413 5414 5413 5412 5412 5411 5410 5409 5408 5405
5405 5404 5402 5401 5399 5396 5396 5396 5396 5396 5395 5393 5393 5392 5392 5392 5391 5391 5391 5386 5386 5390 5391 5392 5395 5398 5401 5404 5405 5406 5407 5407 5407 5407 5408 5407 5408 5407 5407 5406 5405 5405 5404 5402
5397 5396 5395 5395 5394 5392 5390 5389 5388 5389 5388 5387 5383 5385 5382 5382 5380 5382 5383 5380 5379 5381 5382 5384 5388 5390 5393 5394 5395 5397 5398 5399 5399 5400 5400 5400 5400 5400 5401 5401 5400 5399 5399 5397
5392 5390 5389 5388 5387 5387 5388 5384 5381 5380 5379 5379 5378 5376 5374 5374 5374 5374 5373 5373 5373 5375 5375 5377 5379 5381 5383 5383 5386 5388 5390 5391 5392 5393 5393 5394 5394 5394 5394 5394 5394 5394 5393 5391
5385 5378 5376 5379 5385 5385 5378 5374 5372 5371 5373 5371 5370 5368 5368 5367 5367 5367 5366 5366 5367 5367 5366 5368 5371 5373 5373 5374 5376 5378 5381 5382 5384 5385 5386 5386 5387 5388 5387 5387 5386 5386 5384 5383
5380 5380 5379 5379 5379 5378 5376 5374 5373 5370 5368 5366 5364 5362 5360 5360 5360 5360 5359 5360 5359 5360 5360 5360 5362 5364 5364 5366 5367 5368 5369 5371 5375 5376 5377 5379 5379 5380 5380 5379 5377 5377 5376 5374
5368 5373 5366 5372 5372 5372 5370 5369 5367 5366 5365 5361 5359 5358 5356 5355 5354 5354 5353 5351 5351 5352 5353 5354 5354 5356 5358 5359 5360 5361 5362 5363 5365 5366 5367 5368 5369 5370 5370 5369 5368 5366 5364 5363